Location: Pinhead Observatory
(34.4473°N, 118.1985°W)
Time: 18:48:43
(UTC-07:00)

CZ-4C R/B - Visible Passes

Search period start: 26 April 2015 00:00
Search period end: 06 May 2015 00:00
Orbit: 772 x 1230 km, 63.4° (Epoch: 25 April)

Date Brightness Start Highest point End Pass type
(mag) Time Alt. Az. Time Alt. Az. Time Alt. Az.
26 Apr 4.1 01:54:30 26° NNE 01:54:30 26° NNE 01:57:08 10° NNE visible
27 Apr 4.8 00:41:35 12° NE 00:41:35 12° NE 00:42:06 10° NE visible
27 Apr 4.2 02:26:45 22° NNW 02:26:45 22° NNW 02:30:05 10° N visible
28 Apr 4.4 01:13:49 22° NNE 01:13:49 22° NNE 01:15:53 10° NNE visible
28 Apr 4.6 02:58:59 11° NW 02:59:57 12° NW 03:01:49 10° NNW visible
29 Apr 4.2 01:46:00 23° NNW 01:46:00 23° NNW 01:49:01 10° N visible
30 Apr 4.5 00:32:59 19° NNE 00:32:59 19° NNE 00:34:36 10° NNE visible
30 Apr 4.6 02:18:08 14° NW 02:18:22 14° NW 02:21:16 10° N visible
01 May 4.2 01:05:04 24° N 01:05:04 24° N 01:07:53 10° NNE visible
01 May 4.5 23:51:56 17° NE 23:51:56 17° NE 23:53:16 10° NE visible
02 May 4.5 01:37:04 17° NW 01:37:04 17° NW 01:40:27 10° N visible
03 May 4.1 00:23:52 26° N 00:23:52 26° N 00:26:43 10° NNE visible
03 May 4.3 23:10:34 17° NE 23:10:34 17° NE 23:11:53 10° NE visible
04 May 4.4 00:55:42 20° NW 00:55:42 20° NW 00:59:30 10° N visible
04 May 3.8 23:42:17 31° N 23:42:17 31° N 23:45:30 10° NNE visible
05 May 4.0 22:28:43 19° NE 22:28:43 19° NE 22:30:27 10° NE visible
